• In Uzbekistan
  • List of Countries
  • For 7 days
  • Water Temperature
  • Satellite Maps
  • Weather Map
  • Weather Widgets
  • user-avatar
    Login

    Hourly Weather Campo Grande

    Today, 20 November, Monday

    Time Temperature Precipitation Wind Pressure Humidity
    00:00 +23°C° 0 mm 2 mps 707 mmHg 81%
    01:00 +23°C° 0 mm 2 mps 707 mmHg 81%
    02:00 +23°C° 0 mm 2 mps 706 mmHg 81%
    03:00 +21°C° 0 mm 2 mps 706 mmHg 81%
    04:00 +21°C° 0 mm 2 mps 706 mmHg 81%
    05:00 +21°C° 0 mm 2 mps 706 mmHg 81%
    06:00 +24°C° 0 mm 2 mps 707 mmHg 75%
    07:00 +26°C° 0 mm 2 mps 708 mmHg 69%
    08:00 +28°C° 0 mm 3 mps 708 mmHg 63%
    09:00 +29°C° 0.3 mm 2 mps 708 mmHg 59%
    10:00 +31°C° 0.3 mm 2 mps 708 mmHg 56%
    11:00 +32°C° 0.3 mm 2 mps 708 mmHg 52%
    12:00 +34°C° 0.4 mm 2 mps 707 mmHg 50%
    13:00 +33°C° 0.4 mm 1 mps 707 mmHg 49%
    14:00 +34°C° 0.4 mm 1 mps 706 mmHg 47%
    15:00 +33°C° 0 mm 1 mps 706 mmHg 50%
    16:00 +32°C° 0 mm 1 mps 706 mmHg 53%
    17:00 +32°C° 0 mm 1 mps 705 mmHg 55%
    18:00 +30°C° 0 mm 1 mps 706 mmHg 59%
    19:00 +29°C° 0 mm 1 mps 706 mmHg 63%
    20:00 +28°C° 0 mm 1 mps 706 mmHg 67%
    21:00 +27°C° 0.1 mm 1 mps 707 mmHg 69%
    22:00 +27°C° 0.1 mm 1 mps 707 mmHg 71%
    23:00 +26°C° 0.1 mm 1 mps 707 mmHg 73%

    Tomorrow, 21 November, Tuesday

    Time Temperature Precipitation Wind Pressure Humidity
    00:00 +26°C° 0 mm 1 mps 707 mmHg 75%
    01:00 +25°C° 0 mm 1 mps 706 mmHg 77%
    02:00 +25°C° 0 mm 1 mps 706 mmHg 79%
    03:00 +25°C° 0 mm 1 mps 706 mmHg 80%
    04:00 +24°C° 0 mm 1 mps 706 mmHg 81%
    05:00 +24°C° 0 mm 1 mps 706 mmHg 82%
    06:00 +26°C° 0.1 mm 2 mps 707 mmHg 75%
    07:00 +28°C° 0.1 mm 2 mps 708 mmHg 68%
    08:00 +30°C° 0.1 mm 3 mps 708 mmHg 60%
    09:00 +31°C° 0.4 mm 3 mps 708 mmHg 57%
    10:00 +33°C° 0.4 mm 3 mps 708 mmHg 55%
    11:00 +34°C° 0.4 mm 2 mps 708 mmHg 52%
    12:00 +34°C° 2.3 mm 2 mps 708 mmHg 55%
    13:00 +32°C° 2.3 mm 2 mps 707 mmHg 57%
    14:00 +31°C° 2.3 mm 2 mps 706 mmHg 60%
    15:00 +31°C° 2.7 mm 2 mps 706 mmHg 64%
    16:00 +30°C° 2.7 mm 2 mps 706 mmHg 68%
    17:00 +29°C° 2.7 mm 1 mps 705 mmHg 72%
    18:00 +28°C° 0.3 mm 2 mps 706 mmHg 75%
    19:00 +27°C° 0.3 mm 2 mps 706 mmHg 77%
    20:00 +26°C° 0.3 mm 2 mps 706 mmHg 80%
    21:00 +25°C° 0 mm 2 mps 707 mmHg 81%
    22:00 +25°C° 0 mm 1 mps 707 mmHg 82%
    23:00 +25°C° 0 mm 1 mps 707 mmHg 82%

    Day after tomorrow, 22 November, Wednesday

    Time Temperature Precipitation Wind Pressure Humidity
    00:00 +24°C° 0 mm 1 mps 707 mmHg 83%
    01:00 +24°C° 0 mm 1 mps 707 mmHg 85%
    02:00 +24°C° 0 mm 1 mps 706 mmHg 86%
    03:00 +24°C° 0 mm 1 mps 707 mmHg 86%
    04:00 +24°C° 0 mm 1 mps 707 mmHg 87%
    05:00 +21°C° 0 mm 0 mps 707 mmHg 88%
    06:00 +23°C° 0 mm 0 mps 708 mmHg 80%
    07:00 +27°C° 0 mm 1 mps 708 mmHg 73%
    08:00 +29°C° 0 mm 1 mps 709 mmHg 66%
    09:00 +31°C° 0 mm 1 mps 709 mmHg 59%
    10:00 +33°C° 0 mm 1 mps 708 mmHg 53%
    11:00 +35°C° 0 mm 1 mps 708 mmHg 47%
    12:00 +34°C° 0 mm 1 mps 708 mmHg 48%
    13:00 +34°C° 0 mm 2 mps 707 mmHg 49%
    14:00 +32°C° 0 mm 2 mps 706 mmHg 50%
    15:00 +31°C° 1.1 mm 2 mps 706 mmHg 56%
    16:00 +30°C° 1.1 mm 2 mps 706 mmHg 63%
    17:00 +28°C° 1.1 mm 2 mps 706 mmHg 70%
    18:00 +27°C° 0.9 mm 2 mps 706 mmHg 73%
    19:00 +27°C° 0.9 mm 2 mps 707 mmHg 75%
    20:00 +26°C° 0.9 mm 1 mps 707 mmHg 78%
    21:00 +25°C° 0.1 mm 1 mps 707 mmHg 79%
    22:00 +25°C° 0.1 mm 1 mps 708 mmHg 81%
    23:00 +24°C° 0.1 mm 1 mps 708 mmHg 82%

    23 November, Thursday

    Time Temperature Precipitation Wind Pressure Humidity
    00:00 +24°C° 0.2 mm 1 mps 707 mmHg 83%
    01:00 +24°C° 0.2 mm 1 mps 707 mmHg 83%
    02:00 +23°C° 0.2 mm 1 mps 706 mmHg 84%
    03:00 +23°C° 0.1 mm 1 mps 707 mmHg 84%
    04:00 +23°C° 0.1 mm 1 mps 707 mmHg 85%
    05:00 +23°C° 0.1 mm 1 mps 707 mmHg 85%
    06:00 +25°C° 0 mm 1 mps 708 mmHg 77%
    07:00 +27°C° 0 mm 1 mps 709 mmHg 69%
    08:00 +29°C° 0 mm 2 mps 709 mmHg 60%
    09:00 +31°C° 0 mm 1 mps 709 mmHg 55%
    10:00 +33°C° 0 mm 1 mps 709 mmHg 50%
    11:00 +33°C° 0 mm 0 mps 709 mmHg 45%
    12:00 +35°C° 0 mm 1 mps 708 mmHg 44%
    13:00 +34°C° 0 mm 1 mps 708 mmHg 44%
    14:00 +34°C° 0 mm 1 mps 707 mmHg 44%
    15:00 +33°C° 0 mm 1 mps 707 mmHg 47%
    16:00 +32°C° 0 mm 1 mps 707 mmHg 49%
    17:00 +32°C° 0 mm 1 mps 706 mmHg 52%
    18:00 +30°C° 0 mm 1 mps 707 mmHg 54%
    19:00 +29°C° 0 mm 1 mps 707 mmHg 56%
    20:00 +28°C° 0 mm 2 mps 707 mmHg 58%
    21:00 +27°C° 0 mm 2 mps 708 mmHg 62%
    22:00 +27°C° 0 mm 2 mps 708 mmHg 66%
    23:00 +26°C° 0 mm 2 mps 708 mmHg 70%

    24 November, Friday

    Time Temperature Precipitation Wind Pressure Humidity
    00:00 +25°C° 0 mm 2 mps 708 mmHg 72%
    01:00 +25°C° 0 mm 2 mps 707 mmHg 75%
    02:00 +25°C° 0 mm 2 mps 707 mmHg 78%
    03:00 +24°C° 0 mm 2 mps 707 mmHg 79%
    04:00 +24°C° 0 mm 1 mps 707 mmHg 79%
    05:00 +24°C° 0 mm 1 mps 708 mmHg 80%
    06:00 +26°C° 0 mm 2 mps 708 mmHg 73%
    07:00 +28°C° 0 mm 2 mps 709 mmHg 65%
    08:00 +30°C° 0 mm 3 mps 710 mmHg 58%
    09:00 +33°C° 0 mm 3 mps 710 mmHg 53%
    10:00 +34°C° 0 mm 3 mps 710 mmHg 48%
    11:00 +35°C° 0 mm 3 mps 709 mmHg 43%
    12:00 +35°C° 0 mm 3 mps 709 mmHg 44%
    13:00 +35°C° 0 mm 3 mps 708 mmHg 45%
    14:00 +35°C° 0 mm 2 mps 707 mmHg 45%
    15:00 +34°C° 0 mm 2 mps 707 mmHg 48%
    16:00 +32°C° 0 mm 2 mps 707 mmHg 52%
    17:00 +31°C° 0 mm 2 mps 706 mmHg 55%
    18:00 +30°C° 0.1 mm 2 mps 707 mmHg 58%
    19:00 +29°C° 0.1 mm 2 mps 707 mmHg 61%
    20:00 +28°C° 0.1 mm 2 mps 708 mmHg 64%
    21:00 +27°C° 0.4 mm 3 mps 708 mmHg 70%
    22:00 +26°C° 0.4 mm 3 mps 708 mmHg 76%
    23:00 +25°C° 0.4 mm 3 mps 708 mmHg 82%

    25 November, Saturday

    Time Temperature Precipitation Wind Pressure Humidity
    00:00 +25°C° 0 mm 3 mps 708 mmHg 83%
    01:00 +24°C° 0 mm 3 mps 707 mmHg 83%
    02:00 +24°C° 0 mm 2 mps 707 mmHg 84%
    03:00 +24°C° 0 mm 2 mps 707 mmHg 85%
    04:00 +24°C° 0 mm 2 mps 707 mmHg 85%
    05:00 +23°C° 0 mm 2 mps 707 mmHg 86%
    06:00 +25°C° 0 mm 3 mps 708 mmHg 79%
    07:00 +27°C° 0 mm 3 mps 709 mmHg 72%
    08:00 +29°C° 0 mm 4 mps 709 mmHg 65%
    09:00 +30°C° 0.1 mm 3 mps 709 mmHg 61%
    10:00 +31°C° 0.1 mm 3 mps 709 mmHg 57%
    11:00 +33°C° 0.1 mm 3 mps 708 mmHg 53%
    12:00 +33°C° 2 mm 3 mps 708 mmHg 57%
    13:00 +31°C° 2 mm 3 mps 707 mmHg 62%
    14:00 +30°C° 2 mm 3 mps 707 mmHg 67%
    15:00 +29°C° 2 mm 2 mps 707 mmHg 72%
    16:00 +28°C° 2 mm 2 mps 707 mmHg 77%
    17:00 +27°C° 2 mm 2 mps 707 mmHg 82%
    18:00 +27°C° 0.4 mm 2 mps 707 mmHg 83%
    19:00 +26°C° 0.4 mm 2 mps 707 mmHg 85%
    20:00 +25°C° 0.4 mm 2 mps 707 mmHg 87%
    21:00 +25°C° 0.3 mm 2 mps 707 mmHg 88%
    22:00 +25°C° 0.3 mm 2 mps 707 mmHg 89%
    23:00 +24°C° 0.3 mm 2 mps 707 mmHg 90%
    Show more